Starlink 3936

operational
NORAD ID: 52674 Int'l Des: 2022-053 Owner: SPXS Country: US Constellation: starlink
LEOCIRCULAR

About Starlink 3936

Description loading...

Live Position

Loading 3D Globe...

Upcoming Passes

Altitude History

Altitude vs Time

uPlot chart will show altitude changes over time

Two-Line Element Set

1 52674U 22053U 25352.77162122 .00000282 00000-0 35821-4 0 9996
2 52674 53.2162 157.3737 0001474 86.7323 273.3837 15.08837480198839
Epoch: Dec 18, 2025 • Age: 19 hours

Current Status

Altitude 539.6 km
Velocity 7.59 km/s
Sub-Earth Point 10.58°N, 131.45°W
Launch Date May 18, 2022
Age 3.5 years
Type internet

Technical Details

Classification Payload
Mass 297.00 kg
Dry Mass 275.00 kg
Total Mass 297.00 kg
Length 0.20 m
Diameter 2.80 m
Span 9.00 m
Shape Box + pan
Manufacturer SPXS
Bus Type Starlink
Phase Status In Orbit
Owner/State SPXS/US

Large Constellations

Loading constellations...